When you browse on this site, cookies collect data to enhance your experience and personalize the content and advertising you see.
Visit our Privacy Policy to learn more. By continuing to use the site, you agree to this use of cookies and data.
  • In Denmark
  • List of Countries
  • For 7 days
  • Water Temperature
  • Satellite Maps
  • Weather Map
  • Weather Widgets
  • user-avatar
    Login

    Hourly Weather Ben-Gurion

    Today, 16 December, Sunday

    Time Temperature Precipitation Wind Pressure Humidity
    00:00 +19°C° 0 mm 5 mps 759 mmHg 58%
    01:00 +19°C° 0 mm 5 mps 758 mmHg 57%
    02:00 +18°C° 0 mm 4 mps 758 mmHg 55%
    03:00 +18°C° 0 mm 4 mps 758 mmHg 55%
    04:00 +18°C° 0 mm 4 mps 758 mmHg 56%
    05:00 +18°C° 0 mm 4 mps 758 mmHg 56%
    06:00 +18°C° 0 mm 4 mps 758 mmHg 55%
    07:00 +18°C° 0 mm 4 mps 758 mmHg 55%
    08:00 +19°C° 0 mm 4 mps 758 mmHg 54%
    09:00 +20°C° 0 mm 3 mps 758 mmHg 51%
    10:00 +21°C° 0 mm 3 mps 758 mmHg 48%
    11:00 +22°C° 0 mm 3 mps 758 mmHg 45%
    12:00 +22°C° 0 mm 3 mps 757 mmHg 45%
    13:00 +22°C° 0 mm 3 mps 757 mmHg 45%
    14:00 +24°C° 0 mm 2 mps 757 mmHg 45%
    15:00 +23°C° 0 mm 2 mps 757 mmHg 48%
    16:00 +21°C° 0 mm 2 mps 757 mmHg 52%
    17:00 +20°C° 0 mm 2 mps 757 mmHg 55%
    18:00 +20°C° 0 mm 2 mps 757 mmHg 57%
    19:00 +19°C° 0 mm 2 mps 758 mmHg 58%
    20:00 +20°C° 0 mm 1 mps 758 mmHg 60%
    21:00 +19°C° 0 mm 1 mps 758 mmHg 61%
    22:00 +18°C° 0 mm 2 mps 758 mmHg 62%
    23:00 +17°C° 0 mm 2 mps 758 mmHg 63%

    Tomorrow, 17 December, Monday

    Time Temperature Precipitation Wind Pressure Humidity
    00:00 +17°C° 0 mm 2 mps 758 mmHg 62%
    01:00 +17°C° 0 mm 2 mps 758 mmHg 61%
    02:00 +16°C° 0 mm 2 mps 757 mmHg 61%
    03:00 +16°C° 0 mm 3 mps 757 mmHg 57%
    04:00 +16°C° 0 mm 3 mps 757 mmHg 54%
    05:00 +16°C° 0 mm 3 mps 757 mmHg 50%
    06:00 +16°C° 0 mm 3 mps 757 mmHg 48%
    07:00 +17°C° 0 mm 4 mps 758 mmHg 46%
    08:00 +17°C° 0 mm 4 mps 758 mmHg 44%
    09:00 +17°C° 0.1 mm 5 mps 758 mmHg 44%
    10:00 +19°C° 0.1 mm 6 mps 758 mmHg 44%
    11:00 +20°C° 0.1 mm 7 mps 758 mmHg 43%
    12:00 +20°C° 0.2 mm 7 mps 758 mmHg 45%
    13:00 +20°C° 0.2 mm 7 mps 758 mmHg 47%
    14:00 +20°C° 0.2 mm 7 mps 757 mmHg 48%
    15:00 +19°C° 0.2 mm 6 mps 758 mmHg 52%
    16:00 +19°C° 0.2 mm 5 mps 758 mmHg 55%
    17:00 +17°C° 0.2 mm 5 mps 758 mmHg 59%
    18:00 +17°C° 0.1 mm 5 mps 758 mmHg 59%
    19:00 +16°C° 0.1 mm 5 mps 759 mmHg 58%
    20:00 +16°C° 0.1 mm 5 mps 759 mmHg 58%
    21:00 +16°C° 0.5 mm 5 mps 759 mmHg 58%
    22:00 +16°C° 0.5 mm 5 mps 759 mmHg 59%
    23:00 +16°C° 0.5 mm 6 mps 759 mmHg 59%

    Day after tomorrow, 18 December, Tuesday

    Time Temperature Precipitation Wind Pressure Humidity
    00:00 +16°C° 0.7 mm 6 mps 760 mmHg 64%
    01:00 +16°C° 0.7 mm 6 mps 760 mmHg 68%
    02:00 +16°C° 0.7 mm 6 mps 760 mmHg 72%
    03:00 +16°C° 0.4 mm 6 mps 760 mmHg 73%
    04:00 +15°C° 0.4 mm 5 mps 760 mmHg 73%
    05:00 +15°C° 0.4 mm 5 mps 760 mmHg 74%
    06:00 +15°C° 0.2 mm 5 mps 760 mmHg 72%
    07:00 +15°C° 0.2 mm 5 mps 761 mmHg 70%
    08:00 +15°C° 0.2 mm 5 mps 761 mmHg 69%
    09:00 +16°C° 0.2 mm 5 mps 761 mmHg 65%
    10:00 +17°C° 0.2 mm 5 mps 761 mmHg 62%
    11:00 +19°C° 0.2 mm 6 mps 761 mmHg 59%
    12:00 +19°C° 0.1 mm 5 mps 761 mmHg 58%
    13:00 +20°C° 0.1 mm 5 mps 760 mmHg 56%
    14:00 +20°C° 0.1 mm 5 mps 760 mmHg 55%
    15:00 +19°C° 0.1 mm 4 mps 760 mmHg 58%
    16:00 +19°C° 0.1 mm 4 mps 760 mmHg 61%
    17:00 +18°C° 0.1 mm 3 mps 760 mmHg 64%
    18:00 +18°C° 0 mm 3 mps 760 mmHg 65%
    19:00 +17°C° 0 mm 3 mps 760 mmHg 67%
    20:00 +17°C° 0 mm 2 mps 761 mmHg 68%
    21:00 +17°C° 0 mm 2 mps 760 mmHg 68%
    22:00 +17°C° 0 mm 2 mps 760 mmHg 68%
    23:00 +16°C° 0 mm 3 mps 760 mmHg 68%

    19 December, Wednesday

    Time Temperature Precipitation Wind Pressure Humidity
    00:00 +16°C° 0 mm 3 mps 760 mmHg 68%
    01:00 +16°C° 0 mm 3 mps 760 mmHg 68%
    02:00 +16°C° 0 mm 3 mps 759 mmHg 67%
    03:00 +16°C° 0 mm 3 mps 759 mmHg 67%
    04:00 +14°C° 0 mm 3 mps 759 mmHg 68%
    05:00 +14°C° 0 mm 3 mps 759 mmHg 68%
    06:00 +15°C° 0 mm 4 mps 759 mmHg 67%
    07:00 +15°C° 0 mm 4 mps 759 mmHg 66%
    08:00 +17°C° 0 mm 4 mps 759 mmHg 65%
    09:00 +17°C° 0.2 mm 5 mps 759 mmHg 61%
    10:00 +19°C° 0.2 mm 6 mps 759 mmHg 57%
    11:00 +20°C° 0.2 mm 7 mps 759 mmHg 53%
    12:00 +20°C° 0.5 mm 7 mps 759 mmHg 55%
    13:00 +20°C° 0.5 mm 7 mps 758 mmHg 57%
    14:00 +20°C° 0.5 mm 8 mps 758 mmHg 59%
    15:00 +18°C° 0.2 mm 7 mps 758 mmHg 61%
    16:00 +17°C° 0.2 mm 7 mps 758 mmHg 62%
    17:00 +17°C° 0.2 mm 6 mps 758 mmHg 63%
    18:00 +16°C° 0.4 mm 6 mps 758 mmHg 63%
    19:00 +16°C° 0.4 mm 5 mps 759 mmHg 64%
    20:00 +16°C° 0.4 mm 5 mps 759 mmHg 64%
    21:00 +16°C° 0.6 mm 5 mps 759 mmHg 64%
    22:00 +16°C° 0.6 mm 6 mps 759 mmHg 65%
    23:00 +15°C° 0.6 mm 6 mps 759 mmHg 65%

    20 December, Thursday

    Time Temperature Precipitation Wind Pressure Humidity
    00:00 +15°C° 0.7 mm 6 mps 759 mmHg 68%
    01:00 +15°C° 0.7 mm 6 mps 759 mmHg 71%
    02:00 +15°C° 0.7 mm 6 mps 759 mmHg 74%
    03:00 +15°C° 0.3 mm 6 mps 759 mmHg 76%
    04:00 +15°C° 0.3 mm 5 mps 760 mmHg 77%
    05:00 +15°C° 0.3 mm 5 mps 760 mmHg 78%
    06:00 +16°C° 0.2 mm 5 mps 760 mmHg 77%
    07:00 +17°C° 0.2 mm 4 mps 761 mmHg 76%
    08:00 +17°C° 0.2 mm 4 mps 761 mmHg 76%
    09:00 +18°C° 0.1 mm 4 mps 761 mmHg 71%
    10:00 +19°C° 0.1 mm 4 mps 761 mmHg 67%
    11:00 +19°C° 0.1 mm 4 mps 762 mmHg 63%
    12:00 +20°C° 0.1 mm 4 mps 761 mmHg 62%
    13:00 +20°C° 0.1 mm 5 mps 761 mmHg 61%
    14:00 +20°C° 0.1 mm 5 mps 761 mmHg 60%
    15:00 +19°C° 0 mm 5 mps 761 mmHg 62%
    16:00 +19°C° 0 mm 4 mps 761 mmHg 65%
    17:00 +18°C° 0 mm 4 mps 762 mmHg 67%
    18:00 +18°C° 0 mm 4 mps 762 mmHg 68%
    19:00 +17°C° 0 mm 3 mps 762 mmHg 69%
    20:00 +17°C° 0 mm 3 mps 763 mmHg 70%
    21:00 +17°C° 0 mm 3 mps 763 mmHg 71%
    22:00 +17°C° 0 mm 3 mps 763 mmHg 72%
    23:00 +16°C° 0 mm 3 mps 763 mmHg 72%

    21 December, Friday

    Time Temperature Precipitation Wind Pressure Humidity
    00:00 +16°C° 0 mm 3 mps 763 mmHg 73%
    01:00 +16°C° 0 mm 3 mps 762 mmHg 73%
    02:00 +16°C° 0 mm 3 mps 762 mmHg 73%
    03:00 +16°C° 0 mm 3 mps 762 mmHg 74%
    04:00 +15°C° 0 mm 2 mps 762 mmHg 75%
    05:00 +15°C° 0 mm 2 mps 762 mmHg 76%
    06:00 +16°C° 0 mm 2 mps 762 mmHg 74%
    07:00 +16°C° 0 mm 2 mps 763 mmHg 72%
    08:00 +17°C° 0 mm 2 mps 763 mmHg 70%
    09:00 +17°C° 0 mm 2 mps 763 mmHg 65%
    10:00 +18°C° 0 mm 2 mps 763 mmHg 60%
    11:00 +19°C° 0 mm 2 mps 762 mmHg 55%
    12:00 +19°C° 0 mm 3 mps 762 mmHg 55%
    13:00 +19°C° 0 mm 3 mps 762 mmHg 54%
    14:00 +20°C° 0 mm 3 mps 761 mmHg 53%
    15:00 +19°C° 0 mm 3 mps 761 mmHg 56%
    16:00 +18°C° 0 mm 3 mps 761 mmHg 60%
    17:00 +17°C° 0 mm 2 mps 762 mmHg 63%
    18:00 +17°C° 0 mm 2 mps 762 mmHg 66%
    19:00 +16°C° 0 mm 1 mps 762 mmHg 68%
    20:00 +16°C° 0 mm 1 mps 762 mmHg 71%
    21:00 +16°C° 0 mm 1 mps 762 mmHg 72%
    22:00 +15°C° 0 mm 1 mps 762 mmHg 73%
    23:00 +15°C° 0 mm 1 mps 761 mmHg 74%
    Show more